Zurück zum Katalog

COSMOS 2160

AktivMilitärPO
NORAD 21731·PAYLOAD·🇷🇺 Russia

Gestartet Sep 28, 1991 von Plesetsk Cosmodrome

Loading…

Nächste Überflüge (nächste 24 Stunden)

TLE

AktuellSource: Space-Track

Epoche: Sep 14, 2026, 10:53 UTC

1 21731U 91068D   26257.45410337  .00000008  00000-0 -12127-4 0  9993
2 21731  82.5820 247.1789 0009004 160.0655 354.4921 12.64709243613810

Verfolge COSMOS 2160 in Echtzeit mit AllMySat

Download on the App Store